Showing default

OPS 7869 (DMSP 4B F1), 3266

Orbit data source: Space-Track

OPS 7869 (DMSP 4B F1), 3266 is a payload satellite owned by SAMSO (US) in SSO that was launched on Thu, 23 May 1968 UTC via a THOR BURNER 2 launch vehicle from the Air Force Western Test Range (AFWTR). Payload-class satellites include a variety of spacecraft equipped with specific instruments for various scientific and technological missions. These include communications satellites like Starlink; space stations such as the ISS; scientific satellites like the Hubble; Earth observation satellites from companies like Planet Labs, Umbra, and HawkEye 360; GPS; miniature CubeSats for education and research; and military/defense satellites.

Loading next visibility...
Identifier
3266, 1968-042A
Orbit
SSO
Country
Flag of USUS
Related business
Manufacturer
RCA/East Windsor
Mission
Non-operational spacecraft
Bus & Motor
DMSP BLOCK 4B, Unknown motor
Mass
79 kg wet, 79 kg dry
Launch date (UTC)
1968-05-23 (58 years ago)
Launch vehicle
THOR BURNER 2
Launch site
Air Force Western Test Range (AFWTR)
Object type
Payload
Rocket body
Debris
Shape & HBR
Unknown
Radar Cross Section
Medium (>0.1 m² and <1 m²)

Expand to show TLE details & history
Last TLE update: 9 hours ago

TLE from 9 hours ago
0 OPS 7869 (DMSP 4B F1)
1 03266U 68042A   25354.81834347  .00000044  00000-0  42639-4 0  9990
2 03266  98.5584 187.6283 0053559  95.0652 265.6639 14.15849268887892
Epoch: 2025-12-20T19:38Z
TLE epoch observation values (Epoch: 2025-12-20T19:38:24.875Z)
Latitude
-0.00005°
Longitude
163.38497°
Altitude
845.467 km
Speed
7.428 km/s
True Right ascension
12h 30m 30s
True Declination
0° 00' 00"
Sunlit
Object was in daylight at epoch
Visualization orbit readout
Latitude
Unknown
Longitude
Unknown
Altitude
Unknown
Speed
Unknown
Apparent Right ascension
Unknown
Apparent Declination
Unknown
Sunlit
N/A
Visualization observer readout
Local Sidereal Time
03:13:05
Azimuth
Unknown
Elevation
Unknown
Doppler factor
Unknown
Orbital elements
Apogee altitude
875.223 km
Perigee altitude
797.94 km
Semi-major axis
7,214.718 km
Eccentricity
0.00536
Inclination
98.5584°
RAAN
187.6283°
Arg. of periapsis
95.0652°
True anomaly
265.05224°
Mean anomaly
265.6639°
Eccentric anomaly
265.35804°
Mean motion
3.54172 °/min
Orbital period
101.65 mins
BSTAR
0.000042639
Loading maneuver chart data...
Computing Atmospheric mass density...
Loading historical data...
Loading historical data...
Loading historical data...
Loading historical data...
Loading historical data...
Loading historical data...
Loading historical data...
Other satellites on launch #42 in the year 1968 (1968-05-23 UTC)

Documentation

Showing up to 5 results
|